Terminal Aerodrome Forecast
Issued by NWS Upton, NY

Home | Current Version | Previous Version | Text Only | Print | Product List | Glossary On
Versions: 1 2 3 4 5 6 7 8 9 10 11 12 13 14 15 16 17 18 19 20 21 22 23 24 25 26 27
000
FTUS41 KOKX 280500 RRA
TAFISP
TAF
KISP 280545Z 2806/2906 33019G27KT 6SM -SN BLSN BKN030
     FM280900 33016G24KT P6SM SCT025 BKN050
     FM281400 33015G25KT P6SM SCT025 BKN050
     FM282200 33010KT P6SM FEW025 SCT250
     FM290100 34006KT P6SM SCT250=

USA.gov is the U.S. government's official web portal to all federal, state and local government web resources and services.